Cloud_Cover
0 0 0 0 0 0 0 0 0 0 0 0 0 0 0 0 0 0 0 0 0 0 0 0 1 19 68 57 14 0 0 0 0 2 14 90 80 22 52 7 88 100 100 100
0 0 0 0 0 0 0 0 0 0 0 0 0 0 0 0 0 0 0 2 0 0 0 0 0 0 5 16 54 20 4 0 1 0 0 0 2 56 99 71 11 5 38 100
0 0 0 0 0 0 0 0 0 0 0 0 0 0 0 0 0 0 0 0 1 0 0 0 0 0 0 29 65 73 4 31 5 5 5 0 0 5 5 67 10 22 5 5
0 0 0 0 0 0 0 0 0 0 0 0 0 0 0 0 0 0 0 0 0 0 0 0 0 0 0 2 5 8 88 19 11 16 12 80 4 3 46 4 5 5 5 5
0 0 0 0 0 0 0 0 0 0 0 0 0 0 0 0 0 0 0 0 0 0 0 0 0 0 0 0 4 3 0 12 19 47 5 16 40 4 42 14 1 0 2 4
0 0 0 0 0 0 0 0 0 0 0 0 0 0 0 0 0 0 0 0 0 0 0 0 1 0 0 0 0 0 0 0 0 0 1 1 4 24 21 4 0 0 0 0
0 0 0 0 0 0 0 0 0 0 0 0 0 0 0 0 0 0 0 2 0 1 0 0 0 0 0 0 0 0 0 0 0 0 0 0 0 0 0 0 0 40 8 10
0 0 0 0 0 0 0 0 0 0 0 0 0 0 0 0 0 0 0 0 4 5 0 0 0 0 0 0 0 0 0 0 0 0 0 0 0 0 0 0 0 5 5 4
0 0 0 0 0 0 0 0 0 0 0 0 0 0 0 0 0 0 0 5 7 5 0 0 0 0 0 0 0 0 0 0 0 0 0 1 6 23 20 5 15 5 1 2
0 0 0 0 0 0 0 0 0 0 0 0 0 0 0 0 0 0 3 7 3 0 0 0 0 0 0 0 0 0 0 0 0 0 0 0 0 0 0 0 0 0 0 4
0 0 0 0 0 0 0 0 0 0 0 0 0 0 0 0 0 0 4 5 2 0 0 0 0 0 0 0 0 0 0 0 0 0 0 0 0 0 0 0 0 0 0 0
5 0 0 1 5 0 0 0 0 0 0 0 0 0 0 0 0 0 0 1 0 0 0 5 5 0 0 0 0 0 0 0 0 0 0 0 0 0 0 0 0 0 0 0
69 100 12 5 0 0 0 0 0 0 0 0 0 0 0 0 0 0 2 0 3 5 5 5 5 5 5 5 5 3 0 0 0 0 0 0 0 0 0 0 0 0 0 0
100 100 94 4 0 0 0 0 0 0 0 0 0 0 0 0 0 0 0 0 5 5 5 5 66 97 66 12 5 1 0 0 0 0 0 0 0 0 0 0 0 0 0 0
6 5 5 5 0 0 0 0 0 0 0 0 0 0 0 0 0 0 0 0 5 5 5 3 1 0 0 0 0 0 0 0 0 0 0 0 0 0 0 0 0 0 4 0
2 4 5 5 1 5 5 5 0 0 0 0 0 0 0 0 0 2 4 6 5 5 1 0 0 0 0 0 0 0 0 0 0 0 0 0 0 0 0 0 0 4 4 4
5 5 5 5 5 1 4 0 0 0 0 0 0 0 0 5 5 4 5 5 3 0 0 0 0 0 0 0 0 0 0 0 0 0 0 0 0 0 0 0 0 0 1 1
5 5 5 1 0 0 0 0 0 0 0 0 0 0 0 0 0 0 0 0 0 0 0 0 0 0 0 0 0 3 2 0 0 0 0 0 0 0 0 8 0 0 0 0
4 0 0 0 0 0 0 0 0 0 0 0 0 0 0 0 0 0 0 0 0 0 0 2 5 0 2 5 5 2 0 0 0 0 0 0 0 9 29 1 0 0 3 0
0 0 0 0 0 0 0 0 0 0 0 0 0 0 0 0 0 0 0 0 0 0 0 2 8 22 100 98 5 0 0 0 0 0 0 0 0 0 0 0 5 5 4 5
0 0 0 0 0 0 0 0 0 0 0 0 0 0 0 0 2 3 0 2 5 5 5 8 20 5 5 5 1 0 0 0 0 0 2 0 0 0 0 5 5 5 5 17
0 0 0 0 0 0 0 0 0 0 0 0 0 0 5 5 5 5 2 2 2 0 0 1 0 0 0 0 0 0 1 0 3 1 1 10 45 96 40 4 41 5 19 92
0 0 0 0 0 0 0 0 0 2 1 5 4 5 5 5 5 5 5 2 0 0 0 0 0 0 0 0 0 0 0 1 11 45 26 9 1 100 42 5 74 48 93 100
0 0 0 0 0 0 2 0 0 0 0 5 31 100 98 46 45 6 5 1 0 0 0 0 0 0 0 1 0 8 6 7 59 100 82 14 1 2 5 80 100 90 100 100
0 0 0 0 0 0 1 0 0 4 5 30 49 86 100 82 6 1 0 0 0 0 0 0 4 4 4 57 37 3 7 13 73 96 18 16 20 13 100 100 99 100 100 100
5 5 21 5 5 5 4 5 32 44 88 94 99 100 42 5 5 2 0 0 0 0 0 1 2 6 78 98 49 24 6 26 36 40 31 33 35 100 100 100 100 100 100 100